FIN1SA EFHK-LGSR

Flight info

Callsign FIN1SA
Flight time 3h 21m
Altitude 34000
Route KOIVU DCT LARTI DCT NAVOT DCT LUTAL/N0451F350 DCT ROLAV/N0450F340 DCT BOKSU M985 SUWGI DCT PODAN/N0452F360 DCT KEKED/N0448F350 DCT MEGIK DCT LOMOS DCT NIKTI DCT KOROS/N0450F360 DCT AMISI DCT NEVRA/N0447F370 UT514 PEXAN
Aircraft A321/M-SDE3FGHIRWY/LB1

Departure

Time 2026-05-09 06:55
Airport Helsinki Vantaa Airport (EFHK)

Arrival

Time 2026-05-09 10:17
Airport Santorini International Airport (LGSR)
Time Latitude Longitude Altitude Speed Heading
2026-05-09 06:25 60.31909 24.96617 167 ft 0 kts 137°
2026-05-09 06:38 60.31913 24.96609 166 ft 4 kts 137°
2026-05-09 06:38 60.31933 24.96574 166 ft 4 kts 147°
2026-05-09 06:38 60.31954 24.96555 166 ft 4 kts 194°
2026-05-09 06:38 60.31963 24.96561 166 ft 0 kts 227°
2026-05-09 06:40 60.31962 24.96560 166 ft 0 kts 227°
2026-05-09 06:41 60.31956 24.96546 166 ft 3 kts 228°
2026-05-09 06:41 60.31923 24.96472 166 ft 9 kts 228°
2026-05-09 06:41 60.31877 24.96371 166 ft 10 kts 228°
2026-05-09 06:41 60.31851 24.96238 166 ft 11 kts 271°
2026-05-09 06:42 60.31886 24.96105 167 ft 11 kts 319°
2026-05-09 06:42 60.31929 24.95988 169 ft 10 kts 271°
2026-05-09 06:42 60.31898 24.95887 169 ft 9 kts 226°
2026-05-09 06:42 60.31851 24.95785 169 ft 11 kts 227°
2026-05-09 06:43 60.31801 24.95676 170 ft 11 kts 227°
2026-05-09 06:43 60.31750 24.95564 171 ft 11 kts 227°
2026-05-09 06:43 60.31699 24.95452 171 ft 11 kts 227°
2026-05-09 06:43 60.31643 24.95328 170 ft 13 kts 227°
2026-05-09 06:44 60.31579 24.95188 170 ft 14 kts 227°
2026-05-09 06:44 60.31512 24.95040 169 ft 15 kts 227°
2026-05-09 06:44 60.31435 24.94871 166 ft 18 kts 227°
2026-05-09 06:44 60.31345 24.94674 162 ft 21 kts 226°
2026-05-09 06:45 60.31242 24.94444 159 ft 23 kts 227°
2026-05-09 06:45 60.31133 24.94204 157 ft 24 kts 228°
2026-05-09 06:45 60.31047 24.94019 158 ft 13 kts 221°
2026-05-09 06:45 60.30974 24.94042 161 ft 10 kts 156°
2026-05-09 06:46 60.30901 24.94073 160 ft 12 kts 164°
2026-05-09 06:46 60.30822 24.94051 160 ft 12 kts 224°
2026-05-09 06:46 60.30766 24.93927 161 ft 12 kts 227°
2026-05-09 06:46 60.30700 24.93783 158 ft 16 kts 227°
2026-05-09 06:47 60.30667 24.93701 156 ft 9 kts 246°
2026-05-09 06:47 60.30701 24.93607 156 ft 10 kts 323°
2026-05-09 06:47 60.30729 24.93557 155 ft 0 kts 318°
2026-05-09 06:53 60.30732 24.93552 155 ft 2 kts 319°
2026-05-09 06:53 60.30758 24.93506 155 ft 7 kts 317°
2026-05-09 06:53 60.30800 24.93432 157 ft 9 kts 326°
2026-05-09 06:53 60.30870 24.93373 159 ft 12 kts 339°
2026-05-09 06:54 60.30943 24.93315 162 ft 10 kts 340°
2026-05-09 06:54 60.31007 24.93364 161 ft 12 kts 47°
2026-05-09 06:54 60.31083 24.93535 159 ft 35 kts 47°
2026-05-09 06:54 60.31416 24.94270 162 ft 104 kts 47°
2026-05-09 06:55 60.32039 24.95641 174 ft 158 kts 47°
2026-05-09 06:55 60.32829 24.97385 631 ft 168 kts 49°
2026-05-09 06:55 60.33623 24.99144 1352 ft 170 kts 50°
2026-05-09 06:55 60.34451 25.00980 1862 ft 186 kts 50°
2026-05-09 06:56 60.35372 25.03023 2120 ft 208 kts 50°
2026-05-09 06:56 60.36401 25.05305 2310 ft 232 kts 50°
2026-05-09 06:56 60.37543 25.07837 2776 ft 251 kts 50°
2026-05-09 06:56 60.38675 25.10549 3519 ft 254 kts 60°
2026-05-09 06:57 60.39212 25.13895 4355 ft 251 kts 89°
2026-05-09 06:57 60.38853 25.17311 5237 ft 252 kts 117°
2026-05-09 06:57 60.37690 25.19976 6063 ft 258 kts 145°
2026-05-09 06:57 60.35999 25.21306 6882 ft 266 kts 164°
2026-05-09 06:58 60.34166 25.22019 7623 ft 270 kts 167°
2026-05-09 06:58 60.32300 25.22659 8356 ft 274 kts 168°
2026-05-09 06:58 60.30399 25.23239 9077 ft 279 kts 175°
2026-05-09 06:58 60.28452 25.22755 9790 ft 286 kts 194°
2026-05-09 06:59 60.26553 25.21661 10499 ft 290 kts 195°
2026-05-09 06:59 60.24554 25.20482 10789 ft 310 kts 195°
2026-05-09 06:59 60.22406 25.19213 10942 ft 332 kts 195°
2026-05-09 06:59 60.20129 25.17867 11235 ft 348 kts 195°
2026-05-09 07:00 60.17782 25.16483 11791 ft 354 kts 195°
2026-05-09 07:00 60.15408 25.15085 12424 ft 357 kts 195°
2026-05-09 07:00 60.13010 25.13674 13062 ft 360 kts 195°
2026-05-09 07:00 60.10596 25.12254 13707 ft 364 kts 195°
2026-05-09 07:01 60.08154 25.10819 14336 ft 367 kts 195°
2026-05-09 07:01 60.05691 25.09383 14901 ft 370 kts 195°
2026-05-09 07:01 60.03209 25.07945 15503 ft 372 kts 195°
2026-05-09 07:01 60.00712 25.06500 16103 ft 375 kts 195°
2026-05-09 07:02 59.98202 25.05047 16709 ft 377 kts 195°
2026-05-09 07:02 59.95672 25.03582 17313 ft 379 kts 195°
2026-05-09 07:02 59.93129 25.02106 17899 ft 381 kts 195°
2026-05-09 07:02 59.90574 25.00620 18500 ft 384 kts 195°
2026-05-09 07:03 59.88002 24.99125 19027 ft 386 kts 195°
2026-05-09 07:03 59.85441 24.97641 19544 ft 388 kts 195°
2026-05-09 07:03 59.82839 24.96139 20070 ft 390 kts 195°
2026-05-09 07:03 59.80221 24.94637 20590 ft 393 kts 195°
2026-05-09 07:04 59.77594 24.93138 21098 ft 395 kts 195°
2026-05-09 07:04 59.74946 24.91626 21596 ft 397 kts 195°
2026-05-09 07:04 59.72283 24.90107 22089 ft 399 kts 196°
2026-05-09 07:04 59.69607 24.88578 22556 ft 401 kts 196°
2026-05-09 07:05 59.66921 24.87041 23017 ft 403 kts 196°
2026-05-09 07:05 59.64220 24.85501 23476 ft 405 kts 196°
2026-05-09 07:05 59.61507 24.83962 23926 ft 407 kts 196°
2026-05-09 07:05 59.58781 24.82413 24292 ft 409 kts 196°
2026-05-09 07:06 59.56038 24.80856 24651 ft 411 kts 196°
2026-05-09 07:06 59.53277 24.79290 25037 ft 414 kts 196°
2026-05-09 07:06 59.50503 24.77727 25389 ft 416 kts 196°
2026-05-09 07:06 59.47719 24.76161 25733 ft 418 kts 196°
2026-05-09 07:07 59.44916 24.74593 26077 ft 420 kts 196°
2026-05-09 07:07 59.42095 24.73017 26428 ft 422 kts 196°
2026-05-09 07:07 59.39261 24.71431 26781 ft 424 kts 196°
2026-05-09 07:07 59.36415 24.69839 27128 ft 426 kts 196°
2026-05-09 07:08 59.33555 24.68239 27475 ft 428 kts 196°
2026-05-09 07:08 59.30682 24.66635 27810 ft 430 kts 196°
2026-05-09 07:08 59.27795 24.65028 28145 ft 432 kts 196°
2026-05-09 07:08 59.24896 24.63419 28478 ft 434 kts 196°
2026-05-09 07:09 59.21984 24.61805 28793 ft 436 kts 196°
2026-05-09 07:09 59.19059 24.60182 29126 ft 438 kts 196°
2026-05-09 07:09 59.16124 24.58555 29461 ft 439 kts 196°
2026-05-09 07:09 59.13179 24.56926 29802 ft 441 kts 196°
2026-05-09 07:10 59.10226 24.55297 30177 ft 441 kts 196°
2026-05-09 07:10 59.07278 24.53678 30632 ft 439 kts 196°
2026-05-09 07:10 59.04338 24.52066 31024 ft 438 kts 196°
2026-05-09 07:10 59.01413 24.50467 31416 ft 436 kts 196°
2026-05-09 07:11 58.98497 24.48878 31801 ft 435 kts 196°
2026-05-09 07:11 58.95584 24.47289 32183 ft 434 kts 196°
2026-05-09 07:11 58.92683 24.45703 32553 ft 433 kts 196°
2026-05-09 07:11 58.89786 24.44122 32902 ft 432 kts 196°
2026-05-09 07:12 58.86927 24.42567 33250 ft 431 kts 196°
2026-05-09 07:12 58.84003 24.40983 33597 ft 431 kts 195°
2026-05-09 07:12 58.81117 24.39426 33944 ft 430 kts 195°
2026-05-09 07:12 58.78234 24.37876 34281 ft 430 kts 195°
2026-05-09 07:13 58.75353 24.36331 34577 ft 429 kts 195°
2026-05-09 07:13 58.72472 24.34791 34814 ft 430 kts 195°
2026-05-09 07:13 58.69589 24.33249 35040 ft 431 kts 196°
2026-05-09 07:13 58.66699 24.31698 35266 ft 431 kts 196°
2026-05-09 07:14 58.63806 24.30142 35486 ft 432 kts 196°
2026-05-09 07:14 58.60910 24.28581 35702 ft 432 kts 196°
2026-05-09 07:14 58.58008 24.27021 35910 ft 433 kts 196°
2026-05-09 07:14 58.55105 24.25468 36126 ft 433 kts 196°
2026-05-09 07:15 58.52197 24.23923 36308 ft 434 kts 196°
2026-05-09 07:15 58.49318 24.22401 36360 ft 435 kts 196°
2026-05-09 07:15 58.43481 24.19321 36358 ft 435 kts 196°
2026-05-09 07:16 58.37645 24.16244 36354 ft 435 kts 196°
2026-05-09 07:16 58.31806 24.13176 36357 ft 435 kts 196°
2026-05-09 07:17 58.25969 24.10127 36354 ft 435 kts 196°
2026-05-09 07:17 58.20113 24.07066 36356 ft 436 kts 195°
2026-05-09 07:18 58.14265 24.04022 36350 ft 436 kts 196°
2026-05-09 07:18 58.08403 24.00977 36350 ft 437 kts 195°
2026-05-09 07:19 58.02540 23.97957 36352 ft 437 kts 195°
2026-05-09 07:19 57.96669 23.94929 36346 ft 437 kts 195°
2026-05-09 07:20 57.90772 23.92114 36343 ft 438 kts 189°
2026-05-09 07:20 57.84728 23.91867 36365 ft 439 kts 178°
2026-05-09 07:21 57.81677 23.92112 36571 ft 439 kts 178°
2026-05-09 07:21 57.78619 23.92349 36753 ft 440 kts 178°
2026-05-09 07:21 57.75560 23.92580 36925 ft 440 kts 178°
2026-05-09 07:21 57.72495 23.92810 37085 ft 441 kts 178°
2026-05-09 07:22 57.69424 23.93039 37252 ft 441 kts 178°
2026-05-09 07:22 57.66356 23.93272 37412 ft 442 kts 178°
2026-05-09 07:22 57.63281 23.93506 37557 ft 442 kts 179°
2026-05-09 07:22 57.60246 23.93733 37702 ft 442 kts 178°
2026-05-09 07:23 57.57166 23.93959 37846 ft 442 kts 179°
2026-05-09 07:23 57.54089 23.94188 37985 ft 443 kts 179°
2026-05-09 07:23 57.51015 23.94419 38121 ft 443 kts 179°
2026-05-09 07:23 57.47935 23.94649 38273 ft 443 kts 179°
2026-05-09 07:24 57.41761 23.95109 38290 ft 444 kts 179°
2026-05-09 07:24 57.35582 23.95571 38290 ft 444 kts 179°
2026-05-09 07:25 57.29440 23.94710 38284 ft 445 kts 191°
2026-05-09 07:25 57.23313 23.92738 38275 ft 451 kts 191°
2026-05-09 07:26 57.17100 23.90737 38279 ft 456 kts 191°
2026-05-09 07:26 57.10839 23.88734 38277 ft 459 kts 191°
2026-05-09 07:27 57.04550 23.86740 38271 ft 459 kts 191°
2026-05-09 07:27 56.98248 23.84747 38275 ft 459 kts 191°
2026-05-09 07:28 56.91934 23.82762 38282 ft 460 kts 191°
2026-05-09 07:28 56.85652 23.80794 38283 ft 461 kts 190°
2026-05-09 07:29 56.79315 23.78800 38285 ft 461 kts 191°
2026-05-09 07:29 56.72977 23.76806 38280 ft 461 kts 190°
2026-05-09 07:30 56.66654 23.74842 38276 ft 462 kts 190°
2026-05-09 07:30 56.60320 23.72886 38271 ft 462 kts 190°
2026-05-09 07:31 56.54006 23.70938 38268 ft 463 kts 190°
2026-05-09 07:31 56.47644 23.68991 38261 ft 463 kts 190°
2026-05-09 07:32 56.42341 23.67355 38273 ft 463 kts 190°
2026-05-09 07:32 56.36001 23.65403 38257 ft 463 kts 190°
2026-05-09 07:33 56.26468 23.62496 38255 ft 463 kts 191°
2026-05-09 07:34 56.20096 23.60567 38251 ft 464 kts 190°
2026-05-09 07:34 56.13774 23.58652 38265 ft 464 kts 190°
2026-05-09 07:35 56.07386 23.56733 38246 ft 464 kts 190°
2026-05-09 07:35 56.01017 23.54825 38244 ft 464 kts 190°
2026-05-09 07:36 55.94639 23.52909 38244 ft 464 kts 190°
2026-05-09 07:36 55.88281 23.51008 38244 ft 465 kts 190°
2026-05-09 07:37 55.81900 23.49104 38242 ft 465 kts 191°
2026-05-09 07:37 55.75555 23.47227 38239 ft 465 kts 190°
2026-05-09 07:38 55.69171 23.45350 38239 ft 465 kts 190°
2026-05-09 07:38 55.62752 23.43456 38221 ft 465 kts 190°
2026-05-09 07:39 55.56386 23.41592 38221 ft 465 kts 190°
2026-05-09 07:39 55.50004 23.39722 38217 ft 465 kts 191°
2026-05-09 07:40 55.43609 23.37849 38197 ft 466 kts 190°
2026-05-09 07:40 55.37241 23.36003 38194 ft 466 kts 190°
2026-05-09 07:41 55.30835 23.34146 38187 ft 466 kts 190°
2026-05-09 07:41 55.24446 23.32297 38190 ft 466 kts 191°
2026-05-09 07:42 55.18048 23.30458 38186 ft 466 kts 191°
2026-05-09 07:42 55.11667 23.28630 38185 ft 465 kts 190°
2026-05-09 07:43 55.05273 23.26811 38185 ft 465 kts 191°
2026-05-09 07:43 54.98899 23.24993 38182 ft 465 kts 191°
2026-05-09 07:44 54.92498 23.23162 38169 ft 465 kts 191°
2026-05-09 07:44 54.86103 23.21340 38168 ft 466 kts 191°
2026-05-09 07:45 54.79702 23.19543 38167 ft 466 kts 191°
2026-05-09 07:45 54.73299 23.17755 38165 ft 466 kts 191°
2026-05-09 07:46 54.66900 23.15959 38161 ft 466 kts 191°
2026-05-09 07:46 54.60538 23.14179 38161 ft 466 kts 191°
2026-05-09 07:47 54.54133 23.12389 38160 ft 466 kts 191°
2026-05-09 07:47 54.47719 23.10600 38158 ft 467 kts 191°
2026-05-09 07:48 54.41289 23.08816 38153 ft 467 kts 191°
2026-05-09 07:48 54.34878 23.07054 38150 ft 467 kts 191°
2026-05-09 07:49 54.28488 23.05244 38147 ft 466 kts 192°
2026-05-09 07:49 54.22158 23.02973 38146 ft 466 kts 194°
2026-05-09 07:50 54.15829 23.00463 38143 ft 466 kts 195°
2026-05-09 07:50 54.09498 22.98038 38139 ft 467 kts 194°
2026-05-09 07:51 54.03140 22.95727 38141 ft 467 kts 194°
2026-05-09 07:51 53.96784 22.93445 38138 ft 467 kts 194°
2026-05-09 07:52 53.90458 22.91154 38141 ft 467 kts 194°
2026-05-09 07:52 53.84119 22.88842 38137 ft 467 kts 194°
2026-05-09 07:53 53.77736 22.86533 38139 ft 467 kts 194°
2026-05-09 07:53 53.71393 22.84250 38139 ft 467 kts 194°
2026-05-09 07:54 53.65041 22.81955 38141 ft 466 kts 194°
2026-05-09 07:54 53.58720 22.79697 38139 ft 466 kts 194°
2026-05-09 07:55 53.52379 22.77439 38140 ft 466 kts 194°
2026-05-09 07:55 53.46015 22.75177 38141 ft 466 kts 194°
2026-05-09 07:56 53.39662 22.72921 38144 ft 465 kts 194°
2026-05-09 07:56 53.33362 22.70688 38145 ft 465 kts 194°
2026-05-09 07:57 53.27013 22.68453 38138 ft 465 kts 194°
2026-05-09 07:57 53.20723 22.66254 38140 ft 464 kts 194°
2026-05-09 07:58 53.14387 22.64036 38139 ft 464 kts 194°
2026-05-09 07:58 53.08090 22.61827 38143 ft 463 kts 194°
2026-05-09 07:59 53.01772 22.59621 38141 ft 463 kts 194°
2026-05-09 07:59 52.95466 22.57425 38140 ft 463 kts 194°
2026-05-09 08:00 52.89190 22.55246 38143 ft 462 kts 194°
2026-05-09 08:00 52.82913 22.53077 38145 ft 462 kts 194°
2026-05-09 08:01 52.76594 22.50904 38149 ft 462 kts 194°
2026-05-09 08:01 52.70324 22.48751 38149 ft 461 kts 194°
2026-05-09 08:02 52.64049 22.46610 38156 ft 460 kts 194°
2026-05-09 08:02 52.57797 22.44480 38150 ft 460 kts 194°
2026-05-09 08:03 52.51495 22.42338 38159 ft 460 kts 194°
2026-05-09 08:03 52.45268 22.40215 38165 ft 459 kts 194°
2026-05-09 08:04 52.38990 22.38088 38161 ft 459 kts 194°
2026-05-09 08:04 52.32756 22.35986 38162 ft 459 kts 194°
2026-05-09 08:05 52.26521 22.33899 38164 ft 458 kts 194°
2026-05-09 08:05 52.20242 22.31791 38162 ft 458 kts 194°
2026-05-09 08:06 52.13999 22.29700 38163 ft 458 kts 194°
2026-05-09 08:06 52.07770 22.27624 38253 ft 454 kts 194°
2026-05-09 08:06 52.04681 22.26598 38525 ft 451 kts 194°
2026-05-09 08:07 52.01620 22.25583 38792 ft 447 kts 194°
2026-05-09 08:07 51.98584 22.24575 39006 ft 444 kts 194°
2026-05-09 08:07 51.95588 22.23577 39108 ft 444 kts 194°
2026-05-09 08:08 51.89523 22.21565 39141 ft 447 kts 194°
2026-05-09 08:08 51.83407 22.19554 39145 ft 451 kts 194°
2026-05-09 08:09 51.77249 22.17526 39147 ft 453 kts 194°
2026-05-09 08:09 51.71059 22.15498 39143 ft 454 kts 194°
2026-05-09 08:10 51.64871 22.13479 39152 ft 454 kts 194°
2026-05-09 08:10 51.58678 22.11463 39160 ft 455 kts 194°
2026-05-09 08:11 51.52444 22.09431 39167 ft 455 kts 194°
2026-05-09 08:11 51.46247 22.07413 39174 ft 456 kts 194°
2026-05-09 08:12 51.36921 22.04394 39176 ft 456 kts 194°
2026-05-09 08:12 51.30709 22.02400 39179 ft 456 kts 194°
2026-05-09 08:13 51.24484 22.00404 39181 ft 456 kts 194°
2026-05-09 08:13 51.18260 21.98407 39185 ft 456 kts 194°
2026-05-09 08:14 51.12026 21.96415 39184 ft 456 kts 194°
2026-05-09 08:14 51.05787 21.94442 39186 ft 457 kts 194°
2026-05-09 08:15 50.99555 21.92462 39186 ft 457 kts 194°
2026-05-09 08:15 50.93314 21.90485 39187 ft 457 kts 194°
2026-05-09 08:16 50.87073 21.88499 39186 ft 457 kts 194°
2026-05-09 08:16 50.80829 21.86512 39186 ft 457 kts 194°
2026-05-09 08:17 50.74623 21.84572 39189 ft 458 kts 194°
2026-05-09 08:17 50.68373 21.82628 39187 ft 458 kts 194°
2026-05-09 08:18 50.62124 21.80679 39191 ft 458 kts 194°
2026-05-09 08:18 50.55874 21.78726 39193 ft 458 kts 194°
2026-05-09 08:19 50.49627 21.76783 39194 ft 458 kts 194°
2026-05-09 08:19 50.44427 21.75171 39196 ft 458 kts 194°
2026-05-09 08:20 50.38178 21.73237 39193 ft 458 kts 194°
2026-05-09 08:20 50.31934 21.71310 39194 ft 457 kts 194°
2026-05-09 08:21 50.25684 21.69384 39193 ft 457 kts 194°
2026-05-09 08:21 50.19441 21.67470 39191 ft 457 kts 194°
2026-05-09 08:22 50.13202 21.65562 39193 ft 457 kts 194°
2026-05-09 08:22 50.06965 21.63659 39193 ft 457 kts 194°
2026-05-09 08:23 50.00730 21.61758 39194 ft 456 kts 194°
2026-05-09 08:23 49.94496 21.59864 39195 ft 456 kts 193°
2026-05-09 08:24 49.88265 21.57988 39195 ft 456 kts 193°
2026-05-09 08:24 49.82034 21.56116 39193 ft 456 kts 193°
2026-05-09 08:25 49.75806 21.54233 39193 ft 456 kts 194°
2026-05-09 08:25 49.69582 21.52353 39196 ft 455 kts 193°
2026-05-09 08:26 49.63365 21.50493 39192 ft 455 kts 193°
2026-05-09 08:26 49.57145 21.48644 39184 ft 455 kts 193°
2026-05-09 08:27 49.50927 21.46787 39183 ft 455 kts 193°
2026-05-09 08:27 49.44711 21.44931 39183 ft 455 kts 193°
2026-05-09 08:28 49.38380 21.44468 39184 ft 461 kts 175°
2026-05-09 08:28 49.32014 21.45771 39181 ft 462 kts 175°
2026-05-09 08:29 49.25646 21.47049 39168 ft 462 kts 175°
2026-05-09 08:29 49.19267 21.48299 39161 ft 462 kts 175°
2026-05-09 08:30 49.12895 21.49552 39160 ft 462 kts 175°
2026-05-09 08:30 49.06522 21.50809 39155 ft 462 kts 175°
2026-05-09 08:31 49.00142 21.52062 39150 ft 462 kts 175°
2026-05-09 08:31 48.93769 21.53317 39146 ft 462 kts 175°
2026-05-09 08:32 48.87394 21.54571 39142 ft 462 kts 175°
2026-05-09 08:33 48.77834 21.56433 39141 ft 462 kts 175°
2026-05-09 08:33 48.71505 21.57663 39137 ft 462 kts 175°
2026-05-09 08:34 48.65134 21.58895 39137 ft 461 kts 175°
2026-05-09 08:34 48.58814 21.60123 39135 ft 461 kts 175°
2026-05-09 08:35 48.52445 21.61357 39133 ft 461 kts 175°
2026-05-09 08:35 48.46076 21.62581 39124 ft 461 kts 175°
2026-05-09 08:36 48.39707 21.63800 39120 ft 461 kts 175°
2026-05-09 08:36 48.33337 21.65014 39120 ft 461 kts 175°
2026-05-09 08:37 48.26970 21.66243 39125 ft 461 kts 175°
2026-05-09 08:37 48.20610 21.67464 39125 ft 461 kts 175°
2026-05-09 08:38 48.14247 21.68675 39130 ft 461 kts 175°
2026-05-09 08:38 48.07927 21.69874 39137 ft 461 kts 175°
2026-05-09 08:39 48.01563 21.71080 39134 ft 461 kts 175°
2026-05-09 08:39 47.95193 21.72287 39134 ft 461 kts 176°
2026-05-09 08:40 47.88824 21.73476 39132 ft 461 kts 176°
2026-05-09 08:40 47.82462 21.74667 39130 ft 461 kts 175°
2026-05-09 08:41 47.76092 21.75858 39126 ft 461 kts 176°
2026-05-09 08:41 47.69720 21.77047 39106 ft 461 kts 176°
2026-05-09 08:42 47.63387 21.78244 39105 ft 462 kts 175°
2026-05-09 08:42 47.57007 21.79442 39108 ft 462 kts 176°
2026-05-09 08:43 47.50632 21.80619 39104 ft 462 kts 176°
2026-05-09 08:43 47.44254 21.81792 39105 ft 462 kts 176°
2026-05-09 08:44 47.37868 21.82971 39106 ft 462 kts 176°
2026-05-09 08:44 47.31488 21.84148 39105 ft 462 kts 176°
2026-05-09 08:45 47.25102 21.85322 39104 ft 462 kts 176°
2026-05-09 08:45 47.18771 21.86998 39105 ft 466 kts 166°
2026-05-09 08:46 47.12595 21.89725 39106 ft 466 kts 166°
2026-05-09 08:46 47.06332 21.92453 39106 ft 467 kts 167°
2026-05-09 08:47 47.00105 21.95151 39105 ft 467 kts 166°
2026-05-09 08:47 46.93869 21.97854 39104 ft 467 kts 167°
2026-05-09 08:48 46.87634 22.00560 39104 ft 467 kts 166°
2026-05-09 08:48 46.81436 22.03241 39101 ft 468 kts 166°
2026-05-09 08:49 46.75192 22.05935 39097 ft 468 kts 166°
2026-05-09 08:49 46.68946 22.08620 39089 ft 468 kts 166°
2026-05-09 08:50 46.62700 22.11303 39093 ft 468 kts 167°
2026-05-09 08:50 46.56439 22.13985 39091 ft 469 kts 167°
2026-05-09 08:51 46.50180 22.16645 39092 ft 469 kts 167°
2026-05-09 08:51 46.43919 22.19314 39095 ft 469 kts 166°
2026-05-09 08:52 46.37656 22.21982 39099 ft 469 kts 166°
2026-05-09 08:52 46.31387 22.24645 39099 ft 469 kts 167°
2026-05-09 08:53 46.25125 22.27285 39103 ft 469 kts 167°
2026-05-09 08:53 46.18848 22.29923 39102 ft 469 kts 167°
2026-05-09 08:54 46.12580 22.32563 39099 ft 470 kts 166°
2026-05-09 08:54 46.06304 22.35205 39103 ft 470 kts 167°
2026-05-09 08:55 46.00024 22.37839 39102 ft 470 kts 166°
2026-05-09 08:55 45.93746 22.40467 39103 ft 470 kts 167°
2026-05-09 08:56 45.87460 22.43083 39107 ft 470 kts 167°
2026-05-09 08:56 45.81167 22.45693 39105 ft 470 kts 167°
2026-05-09 08:57 45.74878 22.48307 39108 ft 471 kts 167°
2026-05-09 08:57 45.68587 22.50908 39106 ft 471 kts 167°
2026-05-09 08:58 45.62298 22.53504 39105 ft 471 kts 167°
2026-05-09 08:58 45.56004 22.56100 39105 ft 471 kts 167°
2026-05-09 08:59 45.49750 22.58665 39105 ft 471 kts 167°
2026-05-09 08:59 45.43453 22.61246 39102 ft 471 kts 167°
2026-05-09 09:00 45.37159 22.63825 39107 ft 471 kts 166°
2026-05-09 09:00 45.30862 22.66405 39101 ft 471 kts 167°
2026-05-09 09:01 45.24562 22.68975 39093 ft 470 kts 167°
2026-05-09 09:01 45.18265 22.71529 39087 ft 471 kts 167°
2026-05-09 09:02 45.11965 22.74081 39091 ft 471 kts 167°
2026-05-09 09:02 45.06687 22.76221 39080 ft 471 kts 167°
2026-05-09 09:03 45.00382 22.78772 39077 ft 471 kts 167°
2026-05-09 09:03 44.94075 22.81312 39081 ft 471 kts 167°
2026-05-09 09:04 44.87768 22.83845 39078 ft 471 kts 167°
2026-05-09 09:04 44.81464 22.86376 39076 ft 471 kts 167°
2026-05-09 09:05 44.75151 22.88890 39073 ft 471 kts 167°
2026-05-09 09:05 44.68838 22.91409 39075 ft 471 kts 167°
2026-05-09 09:06 44.62528 22.93922 39074 ft 471 kts 167°
2026-05-09 09:06 44.56216 22.96429 39073 ft 471 kts 167°
2026-05-09 09:07 44.49899 22.98930 39075 ft 471 kts 167°
2026-05-09 09:07 44.43589 23.01425 39074 ft 471 kts 167°
2026-05-09 09:08 44.37273 23.03925 39072 ft 471 kts 167°
2026-05-09 09:08 44.30960 23.06417 39070 ft 471 kts 167°
2026-05-09 09:09 44.24643 23.08896 39072 ft 471 kts 167°
2026-05-09 09:09 44.18366 23.11357 39072 ft 471 kts 167°
2026-05-09 09:10 44.12058 23.13826 39070 ft 471 kts 167°
2026-05-09 09:10 44.05747 23.16284 39067 ft 471 kts 167°
2026-05-09 09:11 43.99432 23.18742 39072 ft 471 kts 167°
2026-05-09 09:11 43.93119 23.21194 39070 ft 471 kts 167°
2026-05-09 09:12 43.86806 23.23650 39069 ft 471 kts 167°
2026-05-09 09:12 43.80527 23.26083 39070 ft 471 kts 167°
2026-05-09 09:13 43.74226 23.28566 39068 ft 471 kts 166°
2026-05-09 09:13 43.67916 23.31078 39069 ft 471 kts 166°
2026-05-09 09:14 43.61618 23.33574 39068 ft 471 kts 166°
2026-05-09 09:14 43.55321 23.36042 39068 ft 470 kts 167°
2026-05-09 09:15 43.49018 23.38501 39069 ft 471 kts 166°
2026-05-09 09:15 43.42754 23.40952 39070 ft 471 kts 166°
2026-05-09 09:16 43.36453 23.43405 39067 ft 471 kts 166°
2026-05-09 09:16 43.26997 23.47082 39071 ft 471 kts 166°
2026-05-09 09:17 43.20685 23.49534 39074 ft 471 kts 167°
2026-05-09 09:17 43.14372 23.51981 39065 ft 471 kts 166°
2026-05-09 09:18 43.08066 23.54421 39072 ft 471 kts 166°
2026-05-09 09:18 43.01761 23.56854 39071 ft 471 kts 167°
2026-05-09 09:19 42.95491 23.59271 39074 ft 471 kts 167°
2026-05-09 09:19 42.89167 23.61696 39076 ft 472 kts 167°
2026-05-09 09:20 42.82838 23.64124 39081 ft 472 kts 167°
2026-05-09 09:20 42.76523 23.66534 39074 ft 472 kts 167°
2026-05-09 09:21 42.70203 23.68945 39076 ft 472 kts 167°
2026-05-09 09:21 42.63885 23.71348 39071 ft 472 kts 167°
2026-05-09 09:22 42.57562 23.73745 39073 ft 471 kts 167°
2026-05-09 09:22 42.51280 23.76133 39072 ft 472 kts 167°
2026-05-09 09:23 42.44959 23.78526 39072 ft 472 kts 167°
2026-05-09 09:23 42.38631 23.80913 39058 ft 472 kts 167°
2026-05-09 09:24 42.32313 23.83287 39063 ft 471 kts 167°
2026-05-09 09:24 42.25985 23.85666 39058 ft 471 kts 167°
2026-05-09 09:25 42.19665 23.88034 39056 ft 472 kts 167°
2026-05-09 09:25 42.13338 23.90404 39051 ft 472 kts 167°
2026-05-09 09:26 42.07004 23.92779 39049 ft 472 kts 167°
2026-05-09 09:26 42.00672 23.95136 39054 ft 472 kts 167°
2026-05-09 09:27 41.94326 23.97496 39049 ft 473 kts 167°
2026-05-09 09:27 41.87980 23.99856 39050 ft 474 kts 167°
2026-05-09 09:28 41.81625 24.02223 39052 ft 474 kts 167°
2026-05-09 09:28 41.75268 24.04576 39057 ft 474 kts 167°
2026-05-09 09:29 41.68898 24.06917 39060 ft 475 kts 167°
2026-05-09 09:29 41.62525 24.09257 39064 ft 475 kts 167°
2026-05-09 09:30 41.56145 24.11598 39063 ft 475 kts 168°
2026-05-09 09:30 41.49654 24.12835 39063 ft 471 kts 177°
2026-05-09 09:31 41.43136 24.13716 39064 ft 471 kts 177°
2026-05-09 09:32 41.33350 24.15056 39071 ft 471 kts 177°
2026-05-09 09:32 41.26871 24.15933 39071 ft 471 kts 177°
2026-05-09 09:33 41.20360 24.16813 39071 ft 470 kts 177°
2026-05-09 09:33 41.13842 24.17698 39071 ft 470 kts 177°
2026-05-09 09:34 41.07328 24.18571 39069 ft 471 kts 177°
2026-05-09 09:34 41.00809 24.19445 39066 ft 471 kts 177°
2026-05-09 09:36 40.74723 24.22926 39069 ft 472 kts 178°
2026-05-09 09:37 40.68186 24.23804 39067 ft 473 kts 178°
2026-05-09 09:37 40.61637 24.24683 39066 ft 473 kts 178°
2026-05-09 09:38 40.55079 24.25549 39070 ft 474 kts 178°
2026-05-09 09:38 40.48515 24.26411 39073 ft 474 kts 178°
2026-05-09 09:39 40.41936 24.27271 39073 ft 475 kts 178°
2026-05-09 09:39 40.35355 24.28146 39071 ft 475 kts 178°
2026-05-09 09:40 40.28764 24.29016 39072 ft 476 kts 178°
2026-05-09 09:40 40.22169 24.29877 39073 ft 476 kts 178°
2026-05-09 09:41 40.15565 24.30745 39074 ft 477 kts 179°
2026-05-09 09:41 40.08962 24.31604 39065 ft 477 kts 179°
2026-05-09 09:42 40.02355 24.32464 39065 ft 478 kts 179°
2026-05-09 09:42 39.95736 24.33333 39068 ft 478 kts 179°
2026-05-09 09:43 39.89104 24.34206 39066 ft 479 kts 179°
2026-05-09 09:43 39.82469 24.35071 39069 ft 479 kts 179°
2026-05-09 09:44 39.75832 24.35928 39073 ft 480 kts 179°
2026-05-09 09:44 39.69181 24.36773 39070 ft 480 kts 179°
2026-05-09 09:45 39.62528 24.37625 39064 ft 481 kts 179°
2026-05-09 09:45 39.57011 24.38338 39040 ft 476 kts 180°
2026-05-09 09:46 39.50432 24.39187 38817 ft 476 kts 180°
2026-05-09 09:46 39.47138 24.39612 38281 ft 474 kts 180°
2026-05-09 09:46 39.43869 24.40035 37762 ft 471 kts 180°
2026-05-09 09:46 39.40600 24.40453 37192 ft 470 kts 180°
2026-05-09 09:47 39.37352 24.40866 36990 ft 468 kts 180°
2026-05-09 09:47 39.30833 24.41690 37038 ft 473 kts 180°
2026-05-09 09:48 39.24308 24.42525 37045 ft 474 kts 180°
2026-05-09 09:48 39.17726 24.43371 37045 ft 475 kts 180°
2026-05-09 09:49 39.11153 24.44203 37044 ft 475 kts 180°
2026-05-09 09:49 39.04573 24.45038 37038 ft 475 kts 180°
2026-05-09 09:50 38.97996 24.45870 37039 ft 475 kts 180°
2026-05-09 09:50 38.91417 24.46707 37038 ft 475 kts 180°
2026-05-09 09:51 38.84836 24.47540 37037 ft 475 kts 181°
2026-05-09 09:51 38.78243 24.48363 37039 ft 476 kts 181°
2026-05-09 09:52 38.71695 24.49182 37038 ft 476 kts 181°
2026-05-09 09:52 38.65095 24.50014 37035 ft 476 kts 181°
2026-05-09 09:53 38.58497 24.50844 37030 ft 477 kts 181°
2026-05-09 09:53 38.51898 24.51667 37034 ft 477 kts 182°
2026-05-09 09:54 38.45286 24.52488 37039 ft 477 kts 182°
2026-05-09 09:54 38.38679 24.53300 37035 ft 477 kts 182°
2026-05-09 09:54 38.35358 24.53708 36491 ft 480 kts 182°
2026-05-09 09:55 38.32034 24.54124 35895 ft 478 kts 182°
2026-05-09 09:55 38.28729 24.54540 35274 ft 478 kts 183°
2026-05-09 09:55 38.25409 24.54956 34534 ft 480 kts 183°
2026-05-09 09:55 38.22073 24.55368 33645 ft 484 kts 184°
2026-05-09 09:56 38.18721 24.55852 33028 ft 485 kts 179°
2026-05-09 09:56 38.15465 24.56854 32498 ft 492 kts 170°
2026-05-09 09:56 38.12260 24.58455 31955 ft 495 kts 165°
2026-05-09 09:56 38.09106 24.60165 31391 ft 492 kts 165°
2026-05-09 09:57 38.05967 24.61868 30842 ft 489 kts 165°
2026-05-09 09:57 38.02843 24.63556 30297 ft 486 kts 166°
2026-05-09 09:57 37.99737 24.65227 29685 ft 483 kts 166°
2026-05-09 09:57 37.96658 24.66878 29151 ft 478 kts 166°
2026-05-09 09:58 37.93611 24.68511 28609 ft 473 kts 165°
2026-05-09 09:58 37.90595 24.70125 28081 ft 468 kts 165°
2026-05-09 09:58 37.87604 24.71719 27548 ft 464 kts 165°
2026-05-09 09:58 37.84649 24.73292 27026 ft 459 kts 165°
2026-05-09 09:59 37.81715 24.74854 26522 ft 454 kts 165°
2026-05-09 09:59 37.78819 24.76398 26013 ft 449 kts 165°
2026-05-09 09:59 37.75953 24.77922 25531 ft 445 kts 164°
2026-05-09 09:59 37.73118 24.79428 25058 ft 440 kts 164°
2026-05-09 10:00 37.70312 24.80917 24598 ft 435 kts 164°
2026-05-09 10:00 37.67537 24.82390 24142 ft 431 kts 163°
2026-05-09 10:00 37.64789 24.83844 23695 ft 427 kts 163°
2026-05-09 10:00 37.62060 24.85290 23199 ft 423 kts 163°
2026-05-09 10:01 37.59365 24.86722 22757 ft 418 kts 163°
2026-05-09 10:01 37.56698 24.88137 22315 ft 414 kts 163°
2026-05-09 10:01 37.54060 24.89534 21864 ft 410 kts 163°
2026-05-09 10:01 37.51430 24.90925 21405 ft 407 kts 163°
2026-05-09 10:02 37.48827 24.92298 20946 ft 404 kts 163°
2026-05-09 10:02 37.46244 24.93657 20477 ft 401 kts 163°
2026-05-09 10:02 37.43679 24.95009 19995 ft 398 kts 163°
2026-05-09 10:02 37.41133 24.96353 19532 ft 396 kts 163°
2026-05-09 10:03 37.38597 24.97691 19047 ft 394 kts 163°
2026-05-09 10:03 37.36074 24.99022 18571 ft 392 kts 163°
2026-05-09 10:03 37.33569 25.00344 18052 ft 389 kts 163°
2026-05-09 10:03 37.31083 25.01652 17561 ft 385 kts 163°
2026-05-09 10:04 37.28621 25.02944 17083 ft 381 kts 163°
2026-05-09 10:04 37.26186 25.04218 16606 ft 377 kts 163°
2026-05-09 10:04 37.23774 25.05480 16132 ft 374 kts 163°
2026-05-09 10:04 37.21384 25.06729 15656 ft 371 kts 163°
2026-05-09 10:05 37.19011 25.07970 15194 ft 367 kts 162°
2026-05-09 10:05 37.16661 25.09199 14728 ft 364 kts 162°
2026-05-09 10:05 37.14332 25.10418 14265 ft 361 kts 162°
2026-05-09 10:05 37.12019 25.11625 13792 ft 359 kts 162°
2026-05-09 10:06 37.09721 25.12826 13297 ft 356 kts 162°
2026-05-09 10:06 37.07447 25.14018 12837 ft 352 kts 162°
2026-05-09 10:06 37.05199 25.15196 12388 ft 350 kts 162°
2026-05-09 10:06 37.02961 25.16367 11934 ft 348 kts 162°
2026-05-09 10:07 37.00733 25.17528 11477 ft 345 kts 161°
2026-05-09 10:07 36.98529 25.18675 11030 ft 342 kts 162°
2026-05-09 10:07 36.96336 25.19815 10590 ft 340 kts 161°
2026-05-09 10:07 36.94176 25.20939 10337 ft 331 kts 161°
2026-05-09 10:08 36.92118 25.22010 10212 ft 318 kts 162°
2026-05-09 10:08 36.90113 25.23051 10089 ft 307 kts 162°
2026-05-09 10:08 36.88164 25.24061 9816 ft 301 kts 162°
2026-05-09 10:08 36.86224 25.25061 9435 ft 299 kts 162°
2026-05-09 10:09 36.84313 25.26050 9085 ft 297 kts 162°
2026-05-09 10:09 36.82414 25.27033 8727 ft 295 kts 162°
2026-05-09 10:09 36.80531 25.28010 8354 ft 291 kts 162°
2026-05-09 10:09 36.78668 25.28975 7834 ft 288 kts 162°
2026-05-09 10:10 36.76824 25.29932 7372 ft 285 kts 162°
2026-05-09 10:10 36.75003 25.30878 6887 ft 282 kts 162°
2026-05-09 10:10 36.73193 25.31813 6406 ft 278 kts 161°
2026-05-09 10:10 36.71408 25.32733 5861 ft 277 kts 161°
2026-05-09 10:11 36.69633 25.33646 5386 ft 274 kts 161°
2026-05-09 10:11 36.67871 25.34552 4906 ft 273 kts 160°
2026-05-09 10:11 36.66115 25.35457 4351 ft 273 kts 160°
2026-05-09 10:11 36.64406 25.36337 3872 ft 267 kts 160°
2026-05-09 10:12 36.62749 25.37171 3509 ft 253 kts 160°
2026-05-09 10:12 36.61146 25.37937 3428 ft 242 kts 160°
2026-05-09 10:12 36.59610 25.38659 3347 ft 227 kts 160°
2026-05-09 10:12 36.58170 25.39331 3226 ft 214 kts 160°
2026-05-09 10:13 36.56812 25.39963 3136 ft 206 kts 160°
2026-05-09 10:13 36.55479 25.40584 3054 ft 204 kts 160°
2026-05-09 10:13 36.54158 25.41202 2928 ft 201 kts 160°
2026-05-09 10:13 36.52879 25.41805 2641 ft 191 kts 159°
2026-05-09 10:14 36.51664 25.42378 2368 ft 182 kts 159°
2026-05-09 10:14 36.50518 25.42917 2122 ft 169 kts 159°
2026-05-09 10:14 36.49460 25.43415 1908 ft 157 kts 158°
2026-05-09 10:14 36.48460 25.43886 1722 ft 147 kts 158°
2026-05-09 10:15 36.47525 25.44326 1513 ft 141 kts 159°
2026-05-09 10:15 36.46614 25.44756 1329 ft 139 kts 159°
2026-05-09 10:15 36.45713 25.45181 1142 ft 138 kts 159°
2026-05-09 10:15 36.44816 25.45605 976 ft 138 kts 158°
2026-05-09 10:16 36.43924 25.46029 805 ft 137 kts 158°
2026-05-09 10:16 36.43037 25.46446 644 ft 136 kts 156°
2026-05-09 10:16 36.42149 25.46854 430 ft 136 kts 156°
2026-05-09 10:16 36.41273 25.47274 238 ft 134 kts 157°
2026-05-09 10:17 36.40433 25.47671 93 ft 118 kts 157°
2026-05-09 10:17 36.39861 25.47944 85 ft 32 kts 159°
2026-05-09 10:17 36.39777 25.47959 69 ft 7 kts 221°
2026-05-09 10:17 36.39759 25.47902 84 ft 6 kts 251°
2026-05-09 10:18 36.39749 25.47852 82 ft 5 kts 269°
2026-05-09 10:18 36.39769 25.47819 85 ft 5 kts 324°
2026-05-09 10:18 36.39800 25.47804 85 ft 6 kts 340°
2026-05-09 10:18 36.39857 25.47777 87 ft 12 kts 339°
2026-05-09 10:19 36.39949 25.47733 87 ft 15 kts 339°
2026-05-09 10:19 36.40048 25.47686 88 ft 15 kts 339°
2026-05-09 10:19 36.40150 25.47638 88 ft 16 kts 339°
2026-05-09 10:19 36.40253 25.47589 92 ft 11 kts 339°
2026-05-09 10:20 36.40276 25.47545 91 ft 6 kts 246°
2026-05-09 10:20 36.40266 25.47493 92 ft 7 kts 277°
2026-05-09 10:20 36.40281 25.47474 91 ft 1 kts 318°
2026-05-09 10:20 36.40281 25.47465 91 ft 2 kts 272°
2026-05-09 10:21 36.40274 25.47440 90 ft 4 kts 248°
2026-05-09 10:21 36.40266 25.47418 90 ft 0 kts 249°
2026-05-09 10:21 36.40266 25.47417 90 ft 0 kts 249°